Content
SEND FEEDBACK

Mexico Flag

CHUCANDIRO, MEXICO


Home > North America > Mexico > Mexico
Elevation: 6152 feet     Latitude: 19 53N     Longitude: 101 20W

WEATHER
 
SELECT A DAY
Number of Records: 167,776;   Date Range: 1/1/95 - 3/22/16
 
SHARE

PRINT THIS DATA

[ ← Previous Day ]
WEATHER ALMANAC - JANUARY 31, 2013
[ Next Day → ]
[ °C ]   °F
Weather ElementAverageHighLow
Temperature59 °F85 °F (2:45 pm)35.6 °F (7:46 am)
Dewpoint37.6 °F48 °F (2:50 am)28.4 °F (7:46 am)
Humidity48 %92 % (2:50 am)16 % (2:45 pm)
Barometer30.11 in30.30 in (10:11 am)29.76 in (5:45 pm)
Wind Speed2.7 mph11.5 mph (2:43 pm)
Weather ElementAverage
Visibility7.8 mi
Wind DirectionENE (75.6 °)

Weather ElementTotal
Precipitation---
Heating Degree Days4.7 (Base 65)
Growing Degree Days10.3 (Base 50)
Averaged from 41 records on January 31, 2013
WEATHER CONDITIONS BREAKOUT
WIND DIRECTION BREAKOUT
WEATHER BY HOUR - JANUARY 31, 2013
[ °C ]   °F
Local TimeTemperatureDewpointHumidityBarometerVisibilityWind DirectionWind SpeedGust SpeedPrecipitationEventsConditions
1:43 AM41.0 °F30.2 °F65 %30.21 in7.0 miCalmScattered Clouds
2:50 AM50.0 °F48.0 °F92 %29.86 in5.0 miSouth (180°)2.2 mph
2:51 AM41.0 °F30.2 °F65 %29.94 in7.0 miCalmMostly Cloudy
3:43 AM39.2 °F30.2 °F70 %30.20 in7.0 miCalmMostly Cloudy
4:43 AM39.2 °F30.2 °F70 %30.20 in7.0 miCalmMostly Cloudy
5:46 AM39.2 °F30.2 °F70 %29.93 in7.0 miCalmPartly Cloudy
5:50 AM46.0 °F40.0 °F74 %29.92 in5.0 miSouth (180°)2.2 mph
6:45 AM37.4 °F30.2 °F75 %30.24 in7.0 miCalmClear
7:46 AM35.6 °F28.4 °F75 %30.25 in8.0 miCalmClear
8:00 AM39.2 °F30.2 °F70 %30.26 in8.0 miCalmClear
8:16 AM42.8 °F35.6 °F76 %30.26 in8.0 miCalmClear
8:35 AM46.4 °F35.6 °F66 %30.27 in8.0 miCalmClear
8:46 AM48.2 °F33.8 °F58 %30.05 in8.0 miCalmClear
8:55 AM46.0 °F42.0 °F83 %30.09 in6.0 miSSE (160°)2.2 mph
9:05 AM51.8 °F35.6 °F54 %30.28 in8.0 miCalmClear
9:30 AM55.4 °F35.6 °F47 %30.29 in8.0 miCalmClear
9:45 AM57.2 °F35.6 °F44 %30.29 in8.0 miCalmClear
10:11 AM60.8 °F35.6 °F39 %30.30 in8.0 miCalmClear
10:37 AM64.4 °F35.6 °F34 %30.30 in8.0 miENE (60°)4.6 mphClear
10:56 AM64.4 °F35.6 °F34 %30.29 in8.0 miCalmClear
11:28 AM68.0 °F35.6 °F30 %30.28 in8.0 miCalmClear
11:42 AM69.8 °F37.4 °F31 %29.98 in8.0 miCalmClear
11:55 AM73.0 °F39.0 °F19 %30.05 in9.0 miSSE (160°)2.2 mph
12:29 PM73.4 °F39.2 °F29 %30.25 in8.0 miWSW (240°)4.6 mphPartly Cloudy
12:48 PM75.2 °F39.2 °F27 %30.24 in8.0 miSouth (180°)4.6 mphScattered Clouds
1:37 PM78.8 °F39.2 °F24 %30.24 in8.0 miSouth (180°)5.8 mphMostly Cloudy
1:46 PM78.8 °F39.2 °F24 %30.20 in8.0 miSSE (160°)6.9 mphMostly Cloudy
2:43 PM78.8 °F39.2 °F24 %29.84 in8.0 miSSE (150°)11.5 mphMostly Cloudy
2:45 PM85.0 °F46.0 °F16 %29.86 in9.0 miSouth (180°)6.7 mphPartly Cloudy
3:42 PM78.8 °F41.0 °F26 %30.15 in10.0 miSSW (200°)5.8 mphScattered Clouds
4:42 PM77.0 °F41.0 °F28 %30.14 in10.0 miSSW (200°)9.2 mphScattered Clouds
5:43 PM75.2 °F42.8 °F31 %29.87 in10.0 miSouth (180°)11.5 mphScattered Clouds
5:45 PM74.0 °F47.0 °F27 %29.76 in9.0 miESE (120°)8.9 mph
6:44 PM68.0 °F41.0 °F37 %30.17 in10.0 miSouth (190°)10.4 mphPartly Cloudy
7:44 PM66.2 °F41.0 °F40 %30.19 in10.0 miSouth (170°)5.8 mphClear
8:45 PM62.6 °F39.2 °F42 %29.96 in10.0 miCalmClear
8:50 PM64.0 °F44.0 °F38 %29.77 in6.0 miNorth2.2 mph
9:45 PM59.0 °F39.2 °F48 %30.25 in7.0 miCalmClear
10:45 PM55.4 °F39.2 °F54 %30.27 in7.0 miCalmClear
11:45 PM51.8 °F39.2 °F62 %29.94 in7.0 miCalmClear
11:50 PM59.0 °F46.0 °F51 %29.85 in5.0 miSSW (210°)4.5 mph
Hourly data recorded from MMMM, located miles away from Chucandiro, Mexico




STORIES FROM OUR PARTNERS